TITAN 3C TRANSTAGE R/B, 1863

Orbit data source: Space-Track

TITAN 3C TRANSTAGE R/B, 1863 is space debris in HEO originally from a launch on Tue, 21 Dec 1965 UTC launched from the Air Force Eastern Test Range (AFETR). Debris objects in space refer to the collection of defunct objects orbiting the Earth. Examples of debris include non-operational satellites, rocket bodies, and fragments generated from explosions, collisions, or faulty payload assembly.

Loading next visibility...
TITAN 3C TRANSTAGE R/B details
Identifier
1863, 1965-108A
Orbit
HEO
Last TLE update1 day ago
Origin
Flag of USUSAF SSD (US)
ManufacturerMartin Marietta
MissionSpacecraft
Bus & MotorTRANSTAGE, Unknown motor
Mass~2,050 kg wet, 1,950 kg dry
Launch date (UTC)
1965-12-21 (59 years ago)
Launch vehicleUnknown
Launch site
Air Force Eastern Test Range (AFETR)
Object type
Payload
Rocket body
Debris
Shape & HBRCyl + 2 Nozzle, 4.6 m
Radar Cross Section14.974 m², Large (>1 m²)

Expand to show TLE details & history

TLE from 1 day ago
0 TITAN 3C TRANSTAGE R/B
1 01863U 65108A   24355.87051600  .00005332  00000-0  21780-2 0  9997
2 01863  26.7638 258.8094 6041152 170.2665 211.0767  3.94137165346752
Epoch: 2024-12-20T20:53Z
Definitive object data (Epoch: 2024-12-20T20:53:32.582Z)
Latitude0.00001°
Longitude-144.49982°
Altitude20,197.387 km
Speed2.541 km/s
True Right ascension17h 15m 15s
True Declination0° 00' 00"
Sunlit
Object was in daylight at TLE epoch
Visualization TLE readout
Latitude26.08645°
Longitude-70.2343°
Altitude4,980.575 km
Speed6.831 km/s
Apparent Right ascension20h 32m 45s
Apparent Declination4° 27' 57"
Sunlit
Object is in daylight
Visualization observer readout
Local Sidereal Time04:27:41
Azimuth292.786° NW
Elevation-18.519°
Doppler factor1
Orbital elements
Apogee altitude20,784.036 km
Perigee altitude325.304 km
Semi-major axis16,932.807 km
Eccentricity0.6041152
Inclination26.7638°
RAAN258.8094°
Arg. of periapsis170.2665°
True anomaly189.76551°
Mean anomaly211.0767°
Eccentric anomaly199.51437°
Mean motion0.98503 °/min
BSTAR0.002178
Orbital period365.47 mins
Loading maneuver chart data...

TITAN 3C TRANSTAGE R/B Visibility forecast

Observer location: undefined°, undefined

Span
Click to sort rows by Start time (UTC) header in descending order
Start Az.
Max El. time (UTC)
Max El. Az.
Max El.
End time (UTC)
End Az.
219 mins2024-12-22 13:35:05.981Z143.289° SSE2024-12-22 16:13:05.981Z118.499° SE23.717°2024-12-22 17:14:05.981Z90.886° ESE
185 mins2024-12-22 20:49:05.981Z239.766° WSW2024-12-22 23:42:05.981Z190.497° SSW40.364°2024-12-22 23:54:05.981Z114.213° SE
|